Flag for Switzerland Weather past 2 weeks in Winterthur, Switzerland

Now
57 °F

Clear.


Feels Like: 57 °F
Forecast: 58 / 85 °F
Wind: 2 mph from North

Location: Zurich-Kloten

Current Time: Aug 4, 2015 at 5:58:28 AM

Latest Report: Aug 4, 2015 at 5:20 AM


Visibility: 10 mi

Pressure: 30.01 "Hg

Humidity: 100%

Dew point: 57 °F

Location of WinterthurLocation

Historic Weather in Winterthur — Graph

°F

Winterthur temperature yesterday

Maximum temperature yesterday: 88 °F (at 3:20 PM)
Minimum temperature yesterday: 54 °F (at 5:20 AM)
Average temperature yesterday: 72 °F

Past Weeks' High & Low Weather Summary

 TemperatureHumidityPressure
High95 °F (Jul 22, 3:20 PM)100% (Jul 23, 9:20 AM)30.15 "Hg (Jul 23, 9:20 AM)
Low48 °F (Jul 31, 6:20 AM)28% (Jul 21, 5:50 PM)29.74 "Hg (Jul 24, 5:20 PM)
Average68 °F67%29.98 "Hg
* Reported Jul 20 4:20 AM — Aug 4 4:50 AM, Winterthur, Weather by CustomWeather, © 2015

Note: Actual official high and low records may vary slightly from our data, if they occured in-between our weather recording intervals... More about our weather records

Advertising

Winterthur weather history for previous 24 hours

 ConditionsComfort  
Time TempWeatherWind HumidityBarometerVisibility
4:50 AM
Tue, Aug 4
59 °FClear.No wind94%29.98 "Hg10 mi
4:20 AM59 °FClear.1 mph94%29.98 "Hg10 mi
3:50 AM59 °FClear.No wind94%30.01 "Hg10 mi
3:20 AM59 °FClear.1 mph88%30.01 "Hg10 mi
2:50 AM61 °FClear.1 mph88%30.01 "Hg10 mi
1:50 AM61 °FClear.3 mph88%30.01 "Hg10 mi
1:20 AM63 °FClear.5 mph83%30.01 "Hg10 mi
12:50 AM63 °FClear.2 mph83%30.01 "Hg10 mi
12:20 AM64 °FClear.2 mph78%30.01 "Hg10 mi
11:20 PM
Mon, Aug 3
68 °FClear.2 mph69%30.01 "Hg10 mi
10:50 PM70 °FClear.No wind64%30.01 "Hg10 mi
10:20 PM70 °FClear.No wind64%30.01 "Hg10 mi
9:50 PM72 °FSunny.2 mph65%30.01 "Hg10 mi
9:20 PM75 °FSunny.2 mph57%30.01 "Hg10 mi
8:50 PM81 °FSunny.1 mph51%30.01 "Hg10 mi
8:20 PM86 °FSunny.1 mph33%30.01 "Hg10 mi
7:50 PM88 °FSunny.1 mph31%30.01 "Hg10 mi
7:20 PM88 °FSunny.2 mph33%30.01 "Hg10 mi
6:50 PM88 °FSunny.6 mph33%30.01 "Hg10 mi
6:20 PM88 °FSunny.3 mph31%30.04 "Hg10 mi
5:50 PM88 °FPassing clouds.5 mph33%30.04 "HgN/A
5:20 PM88 °FPassing clouds.5 mph31%30.04 "HgN/A
4:50 PM88 °FPassing clouds.3 mph31%30.04 "HgN/A
4:20 PM86 °FPassing clouds.8 mph33%30.04 "HgN/A
3:50 PM86 °FPassing clouds.12 mph33%30.07 "HgN/A
3:20 PM88 °FPassing clouds.10 mph31%30.07 "HgN/A
2:50 PM86 °FPassing clouds.9 mph33%30.07 "HgN/A
2:20 PM84 °FPassing clouds.8 mph35%30.07 "HgN/A
1:50 PM84 °FPassing clouds.5 mph37%30.07 "HgN/A
1:20 PM82 °FPassing clouds.9 mph42%30.09 "HgN/A
12:50 PM81 °FPassing clouds.6 mph45%30.09 "HgN/A
12:20 PM81 °FPassing clouds.6 mph48%30.09 "HgN/A
11:50 AM79 °FSunny.5 mph54%30.09 "Hg10 mi
11:20 AM77 °FSunny.6 mph57%30.09 "Hg10 mi
10:50 AM77 °FSunny.3 mph61%30.12 "Hg10 mi
10:20 AM73 °FSunny.3 mph65%30.12 "Hg10 mi
9:50 AM72 °FPassing clouds.5 mph69%30.12 "HgN/A
9:20 AM70 °FSunny.3 mph73%30.12 "Hg10 mi
8:50 AM68 °FSunny.2 mph73%30.12 "Hg10 mi
8:20 AM64 °FSunny.2 mph78%30.12 "Hg10 mi
7:50 AM61 °FSunny.1 mph88%30.09 "Hg10 mi
7:20 AM57 °FSunny.2 mph100%30.09 "Hg10 mi
6:50 AM55 °FFog.1 mph100%30.09 "HgN/A
6:20 AM54 °FFog.No wind100%30.09 "HgN/A
5:50 AM54 °FFog.No wind100%30.09 "HgN/A
5:20 AM54 °FFog.No wind94%30.07 "HgN/A
Weather by CustomWeather, © 2015

See weather overviewHow to use our weather pages